Regional Weather Roundup
Issued by NWS Green Bay, WI

Home | Current Version | Previous Version | Graphics & Text | Print | Product List | Glossary On
Versions: 1 2 3 4 5 6 7 8 9 10 11 12 13 14 15 16 17 18 19 20 21 22 23 24 25 26 27 28 29 30 31 32 33 34 35 36 37 38 39 40 41 42 43 44 45 46 47 48 49 50
000
ASUS43 KGRB 262310
RWRGRB

NORTH-CENTRAL AND NORTHEAST WISCONSIN REGIONAL WEATHER ROUNDUP
NATIONAL WEATHER SERVICE GREEN BAY WI
500 PM CST WED NOV 26 2014

WIZ005-009-010>012-018-019-270000-
NORTH CENTRAL WISCONSIN

CITY           SKY/WX    TMP DP  RH WIND       PRES   REMARKS
IRONWOOD       CLOUDY    21  19  93 NW10      30.17R
MANITOWISH WTR LGT SNOW  21  20  93 NW9       30.13S
ARBOR VITAE    LGT SNOW  23  20  89 CALM      30.13S
EAGLE RIVER    FLURRIES  21  17  84 NW5       30.12R
LAND O LAKES   CLOUDY    22  19  88 N6        30.13R
RHINELANDER    LGT SNOW  21  18  88 W5        30.13S FOG
PHILLIPS       CLOUDY    20  18  91 CALM      30.16R
ANTIGO         FLURRIES  22  17  83 NW7       30.13R
TOMAHAWK       LGT SNOW  22  20  91 CALM      30.15R
MERRILL        LGT SNOW  24  20  87 NW3       30.15R
$$

WIZ013-073-270000-
NORTHEAST WISCONSIN

CITY           SKY/WX    TMP DP  RH WIND       PRES   REMARKS
IRON MOUNTAIN  CLOUDY    22  17  81 CALM      30.13R
MARINETTE      CLOUDY    21  16  79 W5        30.17S
OCONTO         PTCLDY    20  18  91 NW3       30.17S
$$

WIZ017-030-035>037-045-270000-
CENTRAL WISCONSIN

CITY           SKY/WX    TMP DP  RH WIND       PRES   REMARKS
MEDFORD        LGT SNOW  22  19  89 NW5       30.15R
WAUSAU         FLURRIES  24  19  81 NW5       30.14R
MOSINEE        LGT SNOW  23  21  93 NW5       30.15S
MARSHFIELD     LGT SNOW  24  20  84 NW8       30.16R FOG
WISC RAPIDS    CLOUDY    24  17  74 CALM      30.18S
STEVENS POINT  CLOUDY    19  18  96 CALM      30.16S FOG
WAUPACA        PTCLDY    21  17  84 CALM      30.18S
SHAWANO        CLOUDY    23  19  82 CALM      30.18R
CLINTONVILLE   MOCLDY    18  16  93 CALM      30.17S FOG
$$

WIZ038-039-048-051-270000-
FOX VALLEY

CITY           SKY/WX    TMP DP  RH WIND       PRES   REMARKS
NWS GREEN BAY  PTCLDY    20  16  84 NW5       30.18S
APPLETON       MOCLDY    19  19 100 NW5       30.17R FOG
OSHKOSH        MOCLDY    21  16  81 MISG      30.17R
FOND DU LAC    MOCLDY    21  16  81 NW5       30.17R
$$

WIZ022-050-052-270000-
EAST CENTRAL WISCONSIN

CITY           SKY/WX    TMP DP  RH WIND       PRES   REMARKS
STURGEON BAY   PTCLDY    21  16  79 NW3       30.16S
MANITOWOC      CLOUDY    23  20  88 W3        30.17S
SHEBOYGAN      MOCLDY    22  18  85 N6        30.16R
$$

LMZ563-521-522-541>543-270000-
LAKESHORE

STATION/POSITION TIME  TEMP    WIND        PRES    VSBY  WAVE
                       AIR SEA DIR/SP/G                  HT/PER
                 (UTC) (F)     (DEG/KT/KT) (MB)    (MI)  (FT/S)
SHEBOYGAN LKSHOR 2300   25 36  330/ 12/ 13 1022.7R
KEWAUNEE LKSHORE 2300   23      CALM  /  3 1020.5S
NORTHPORT PIER   2300   25     300/  4/  8 1021.7S
N MID LAKE BUOY  2300   30 42  260/  8/ 12 1022.1F         1
SISTER BAY LKSHO 2200             CALM       N/A
STURGEON BAY CG  2200   24     300/  3     1022.6      6   1
CHAMBERS ISLAND  2300   25     280/  4/  6 1021.7F
MENOMINEE LKSHOR 2300   24     290/  4/  6 1022.2S
$$


USA.gov is the U.S. government's official web portal to all federal, state and local government web resources and services.